This is the latest recevied weather packets stored in our database for station/object APPOWX. If no packets are shown the sender has not sent any weather packets the latest 10 day(s).
| Time | Temp. | Humidity | Pressure | Rain* | Wind** | Luminosity | Snow |
|---|---|---|---|---|---|---|---|
| 1777125785 | 21.67° C | 64% | 1012.3 hPa | 0 mm | - | - | - |
| 1777125725 | 21.67° C | 64% | 1012.4 hPa | 0 mm | - | - | - |
| 1777125665 | 21.11° C | 67% | 1012.3 hPa | 0 mm | - | - | - |
| 1777125605 | 20.56° C | 67% | 1012.4 hPa | 0 mm | - | - | - |
| 1777125545 | 20.56° C | 68% | 1012.4 hPa | 0 mm | - | - | - |
| 1777125484 | 20.56° C | 66% | 1012.2 hPa | 0 mm | - | - | - |
| 1777125425 | 21.11° C | 66% | 1012.3 hPa | 0 mm | - | - | - |
| 1777125364 | 21.11° C | 65% | 1012.1 hPa | 0 mm | - | - | - |
| 1777125305 | 21.67° C | 68% | 1012.3 hPa | 0 mm | - | - | - |
| 1777125244 | 21.67° C | 67% | 1012.3 hPa | 0 mm | - | - | - |
| 1777125184 | 21.11° C | 68% | 1012.3 hPa | 0 mm | - | - | - |
| 1777125125 | 20.56° C | 68% | 1012.1 hPa | 0 mm | - | - | - |
| 1777125064 | 20.56° C | 68% | 1012.3 hPa | 0 mm | - | - | - |
| 1777125004 | 20.56° C | 69% | 1012.1 hPa | 0 mm | - | - | - |
| 1777124944 | 20° C | 69% | 1012.1 hPa | 0 mm | - | - | - |
| 1777124884 | 20° C | 70% | 1012.3 hPa | 0 mm | - | - | - |
| 1777124824 | 20° C | 69% | 1012 hPa | 0 mm | - | - | - |
| 1777124764 | 20.56° C | 69% | 1012.3 hPa | 0 mm | - | - | - |
| 1777124703 | 20° C | 71% | 1012.2 hPa | 0 mm | - | - | - |
| 1777124644 | 20° C | 71% | 1012.2 hPa | 0 mm | - | - | - |
| 1777124584 | 20° C | 70% | 1012.2 hPa | 0 mm | - | - | - |
| 1777124523 | 20° C | 70% | 1012.1 hPa | 0 mm | - | - | - |
| 1777124463 | 20.56° C | 69% | 1012.2 hPa | 0 mm | - | - | - |
| 1777124403 | 20.56° C | 68% | 1012.2 hPa | 0 mm | - | - | - |
| 1777124343 | 20.56° C | 69% | 1012.2 hPa | 0 mm | - | - | - |
* Rain latest hour (hover to see other rain measurements)
** Current wind speed in m/s (hover to see current wind gust speed)